Time,TemperatureF,DewpointF,PressureIn,WindDirection,WindDirectionDegrees,WindSpeedMPH,WindSpeedGustMPH,Humidity,HourlyPrecipIn,Conditions,Clouds,dailyrainin,SoftwareType,DateUTC
2013-05-21 00:03:00,64.0,61.0,30.09,WNW,285,0.0,2.0,91,0.00,,,0.00,,2013-05-21 04:03:00,
2013-05-21 00:13:00,64.0,61.0,30.09,WNW,285,0.0,2.0,91,0.00,,,0.00,,2013-05-21 04:13:00,
2013-05-21 00:23:00,64.0,61.0,30.08,WNW,285,0.0,3.0,91,0.00,,,0.00,,2013-05-21 04:23:00,
2013-05-21 00:33:00,64.0,61.0,30.08,WNW,285,0.0,4.0,91,0.00,,,0.00,,2013-05-21 04:33:00,
2013-05-21 00:42:00,64.0,61.0,30.08,WNW,285,0.0,4.0,91,0.00,,,0.00,,2013-05-21 04:42:00,
2013-05-21 00:53:00,64.0,61.0,30.07,WNW,285,1.0,5.0,91,0.00,,,0.00,,2013-05-21 04:53:00,
2013-05-21 01:02:00,64.0,62.0,30.07,WNW,285,1.0,7.0,92,0.00,,,0.00,,2013-05-21 05:02:00,
2013-05-21 01:12:00,64.0,62.0,30.07,WNW,285,1.0,7.0,92,0.00,,,0.00,,2013-05-21 05:12:00,
2013-05-21 01:22:00,64.0,62.0,30.07,WNW,285,1.0,6.0,92,0.00,,,0.00,,2013-05-21 05:22:00,
2013-05-21 01:32:00,64.0,61.0,30.06,WNW,286,1.0,6.0,91,0.00,,,0.00,,2013-05-21 05:32:00,
2013-05-21 01:42:00,64.0,61.0,30.06,WNW,285,0.0,6.0,90,0.00,,,0.00,,2013-05-21 05:42:00,
2013-05-21 01:52:00,64.0,61.0,30.06,WNW,285,0.0,6.0,90,0.00,,,0.00,,2013-05-21 05:52:00,
2013-05-21 02:02:00,64.0,61.0,30.05,WNW,285,2.0,8.0,90,0.00,,,0.00,,2013-05-21 06:02:00,
2013-05-21 02:12:00,64.0,61.0,30.05,WNW,285,2.0,8.0,90,0.00,,,0.00,,2013-05-21 06:12:00,
2013-05-21 02:21:00,64.0,61.0,30.05,WNW,285,1.0,9.0,90,0.00,,,0.00,,2013-05-21 06:21:00,
2013-05-21 02:32:00,63.0,60.0,30.05,WNW,285,1.0,7.0,91,0.00,,,0.00,,2013-05-21 06:32:00,
2013-05-21 02:42:00,63.0,60.0,30.05,WNW,285,1.0,7.0,91,0.00,,,0.00,,2013-05-21 06:42:00,
2013-05-21 02:52:00,64.0,61.0,30.05,WNW,285,2.0,8.0,91,0.00,,,0.00,,2013-05-21 06:52:00,
2013-05-21 03:01:00,64.0,61.0,30.04,WNW,286,2.0,7.0,91,0.00,,,0.00,,2013-05-21 07:01:00,
2013-05-21 03:11:00,64.0,61.0,30.04,WNW,286,2.0,7.0,91,0.00,,,0.00,,2013-05-21 07:11:00,
2013-05-21 03:22:00,64.0,61.0,30.04,WNW,285,3.0,9.0,90,0.00,,,0.00,,2013-05-21 07:22:00,
2013-05-21 03:31:00,63.0,61.0,30.05,WNW,286,3.0,9.0,92,0.00,,,0.00,,2013-05-21 07:31:00,
2013-05-21 03:41:00,63.0,61.0,30.05,WNW,286,3.0,9.0,92,0.00,,,0.00,,2013-05-21 07:41:00,
2013-05-21 03:52:00,63.0,61.0,30.04,WNW,285,2.0,9.0,93,0.00,,,0.00,,2013-05-21 07:52:00,
2013-05-21 04:02:00,63.0,61.0,30.04,WNW,285,3.0,11.0,92,0.00,,,0.00,,2013-05-21 08:02:00,
2013-05-21 04:11:00,63.0,61.0,30.04,WNW,285,3.0,11.0,92,0.00,,,0.00,,2013-05-21 08:11:00,
2013-05-21 04:21:00,63.0,60.0,30.03,South,176,3.0,11.0,89,0.00,,,0.00,,2013-05-21 08:21:00,
2013-05-21 04:31:00,63.0,59.0,30.03,South,173,3.0,10.0,88,0.00,,,0.00,,2013-05-21 08:31:00,
2013-05-21 04:41:00,63.0,60.0,30.03,South,173,2.0,8.0,89,0.00,,,0.00,,2013-05-21 08:41:00,
2013-05-21 04:52:00,63.0,60.0,30.03,South,173,2.0,8.0,89,0.00,,,0.00,,2013-05-21 08:52:00,
2013-05-21 05:01:00,63.0,59.0,30.04,South,174,1.0,6.0,88,0.00,,,0.00,,2013-05-21 09:01:00,
2013-05-21 05:11:00,63.0,59.0,30.04,South,174,1.0,6.0,88,0.00,,,0.00,,2013-05-21 09:11:00,
2013-05-21 05:21:00,63.0,59.0,30.04,South,173,0.0,3.0,88,0.00,,,0.00,,2013-05-21 09:21:00,
2013-05-21 05:33:00,63.0,60.0,30.04,South,173,0.0,4.0,89,0.00,,,0.00,,2013-05-21 09:33:00,
2013-05-21 05:42:00,63.0,60.0,30.04,South,173,0.0,4.0,89,0.00,,,0.00,,2013-05-21 09:42:00,
2013-05-21 05:53:00,62.0,59.0,30.05,South,173,0.0,2.0,90,0.00,,,0.00,,2013-05-21 09:53:00,
2013-05-21 06:02:00,62.0,59.0,30.05,South,173,0.0,1.0,91,0.00,,,0.00,,2013-05-21 10:02:00,
2013-05-21 06:12:00,62.0,59.0,30.05,South,173,0.0,1.0,91,0.00,,,0.00,,2013-05-21 10:12:00,
2013-05-21 06:22:00,61.0,59.0,30.06,South,173,0.0,0.0,93,0.00,,,0.00,,2013-05-21 10:22:00,
2013-05-21 06:32:00,61.0,59.0,30.06,South,173,0.0,0.0,94,0.00,,,0.00,,2013-05-21 10:32:00,
2013-05-21 06:42:00,61.0,59.0,30.06,South,173,0.0,0.0,94,0.00,,,0.00,,2013-05-21 10:42:00,
2013-05-21 06:52:00,61.0,59.0,30.06,South,173,0.0,0.0,94,0.00,,,0.00,,2013-05-21 10:52:00,
2013-05-21 07:02:00,62.0,60.0,30.06,South,173,0.0,1.0,93,0.00,,,0.00,,2013-05-21 11:02:00,
2013-05-21 07:12:00,62.0,60.0,30.06,South,173,0.0,1.0,93,0.00,,,0.00,,2013-05-21 11:12:00,
2013-05-21 07:22:00,64.0,60.0,30.07,South,173,0.0,3.0,86,0.00,,,0.00,,2013-05-21 11:22:00,
2013-05-21 07:32:00,66.0,61.0,30.07,South,173,0.0,2.0,83,0.00,,,0.00,,2013-05-21 11:32:00,
2013-05-21 07:42:00,66.0,61.0,30.07,South,173,0.0,2.0,83,0.00,,,0.00,,2013-05-21 11:42:00,
2013-05-21 07:52:00,68.0,62.0,30.07,South,173,0.0,2.0,81,0.00,,,0.00,,2013-05-21 11:52:00,
2013-05-21 08:01:00,69.0,62.0,30.07,South,173,0.0,2.0,79,0.00,,,0.00,,2013-05-21 12:01:00,
2013-05-21 08:11:00,69.0,62.0,30.07,South,173,0.0,2.0,79,0.00,,,0.00,,2013-05-21 12:11:00,
2013-05-21 08:21:00,70.0,63.0,30.07,South,173,0.0,1.0,79,0.00,,,0.00,,2013-05-21 12:21:00,
2013-05-21 08:32:00,72.0,63.0,30.08,South,173,0.0,1.0,74,0.00,,,0.00,,2013-05-21 12:32:00,
2013-05-21 08:42:00,72.0,63.0,30.08,South,173,0.0,1.0,74,0.00,,,0.00,,2013-05-21 12:42:00,
2013-05-21 08:52:00,72.0,62.0,30.09,South,173,0.0,1.0,72,0.00,,,0.00,,2013-05-21 12:52:00,
2013-05-21 09:01:00,73.0,65.0,30.09,South,173,0.0,1.0,75,0.00,,,0.00,,2013-05-21 13:01:00,
2013-05-21 09:12:00,73.0,65.0,30.09,South,173,0.0,1.0,75,0.00,,,0.00,,2013-05-21 13:12:00,
2013-05-21 09:22:00,73.0,65.0,30.09,South,173,1.0,4.0,75,0.00,,,0.00,,2013-05-21 13:22:00,
2013-05-21 09:32:00,72.0,63.0,30.09,South,174,1.0,3.0,74,0.00,,,0.00,,2013-05-21 13:32:00,
2013-05-21 09:42:00,72.0,63.0,30.09,South,174,1.0,3.0,74,0.00,,,0.00,,2013-05-21 13:42:00,
2013-05-21 09:52:00,73.0,65.0,30.10,South,173,1.0,3.0,75,0.00,,,0.00,,2013-05-21 13:52:00,
2013-05-21 10:01:00,73.0,66.0,30.10,South,173,0.0,4.0,78,0.00,,,0.00,,2013-05-21 14:01:00,
2013-05-21 10:11:00,73.0,66.0,30.10,South,173,0.0,4.0,78,0.00,,,0.00,,2013-05-21 14:11:00,
2013-05-21 10:21:00,72.0,65.0,30.10,South,174,1.0,4.0,78,0.00,,,0.00,,2013-05-21 14:21:00,
2013-05-21 10:32:00,73.0,64.0,30.09,South,173,0.0,4.0,74,0.00,,,0.00,,2013-05-21 14:32:00,
2013-05-21 10:42:00,73.0,64.0,30.09,South,173,0.0,4.0,74,0.00,,,0.00,,2013-05-21 14:42:00,
2013-05-21 10:52:00,75.0,67.0,30.09,South,173,0.0,2.0,75,0.00,,,0.00,,2013-05-21 14:52:00,
2013-05-21 11:01:00,74.0,66.0,30.09,South,173,0.0,2.0,76,0.00,,,0.00,,2013-05-21 15:01:00,
2013-05-21 11:11:00,74.0,66.0,30.09,South,173,0.0,2.0,76,0.00,,,0.00,,2013-05-21 15:11:00,
2013-05-21 11:21:00,75.0,66.0,30.10,South,176,0.0,2.0,74,0.00,,,0.00,,2013-05-21 15:21:00,
2013-05-21 11:33:00,75.0,66.0,30.10,South,176,0.0,2.0,74,0.00,,,0.00,,2013-05-21 15:33:00,
2013-05-21 11:42:00,74.0,66.0,30.09,South,176,0.0,2.0,75,0.00,,,0.00,,2013-05-21 15:42:00,
2013-05-21 11:53:00,74.0,66.0,30.09,South,176,0.0,2.0,75,0.00,,,0.00,,2013-05-21 15:53:00,
2013-05-21 12:03:00,74.0,65.0,30.09,South,176,0.0,2.0,73,0.00,,,0.00,,2013-05-21 16:03:00,
2013-05-21 12:13:00,74.0,65.0,30.09,South,176,0.0,2.0,73,0.00,,,0.00,,2013-05-21 16:13:00,
2013-05-21 12:23:00,75.0,65.0,30.09,South,176,0.0,2.0,72,0.00,,,0.00,,2013-05-21 16:23:00,
2013-05-21 12:32:00,73.0,65.0,30.09,South,176,2.0,6.0,76,0.00,,,0.00,,2013-05-21 16:32:00,
2013-05-21 12:42:00,75.0,67.0,30.09,South,176,0.0,2.0,75,0.00,,,0.00,,2013-05-21 16:42:00,
2013-05-21 12:53:00,75.0,67.0,30.09,South,176,0.0,2.0,75,0.00,,,0.00,,2013-05-21 16:53:00,
2013-05-21 13:02:00,76.0,65.0,30.09,South,176,1.0,2.0,70,0.00,,,0.00,,2013-05-21 17:02:00,
2013-05-21 13:12:00,76.0,65.0,30.09,South,176,1.0,2.0,70,0.00,,,0.00,,2013-05-21 17:12:00,
2013-05-21 13:23:00,75.0,67.0,30.09,South,177,0.0,3.0,75,0.00,,,0.00,,2013-05-21 17:23:00,
2013-05-21 13:33:00,78.0,67.0,30.08,South,176,1.0,3.0,70,0.00,,,0.00,,2013-05-21 17:33:00,
2013-05-21 13:43:00,78.0,66.0,30.08,South,176,1.0,5.0,66,0.00,,,0.00,,2013-05-21 17:43:00,
2013-05-21 13:52:00,78.0,66.0,30.08,South,176,1.0,5.0,66,0.00,,,0.00,,2013-05-21 17:52:00,
2013-05-21 14:02:00,76.0,66.0,30.07,South,176,1.0,3.0,72,0.00,,,0.00,,2013-05-21 18:02:00,
2013-05-21 14:12:00,76.0,66.0,30.07,South,176,1.0,3.0,72,0.00,,,0.00,,2013-05-21 18:12:00,
2013-05-21 14:22:00,76.0,66.0,30.07,South,176,0.0,2.0,72,0.00,,,0.00,,2013-05-21 18:22:00,
2013-05-21 14:32:00,75.0,66.0,30.07,South,176,0.0,2.0,73,0.00,,,0.00,,2013-05-21 18:32:00,
2013-05-21 14:42:00,74.0,66.0,30.06,South,176,1.0,2.0,75,0.00,,,0.00,,2013-05-21 18:42:00,
2013-05-21 14:52:00,74.0,66.0,30.06,South,176,1.0,2.0,75,0.00,,,0.00,,2013-05-21 18:52:00,
2013-05-21 15:01:00,75.0,67.0,30.06,South,176,1.0,3.0,75,0.00,,,0.00,,2013-05-21 19:01:00,
2013-05-21 15:11:00,75.0,67.0,30.06,South,176,1.0,3.0,75,0.00,,,0.00,,2013-05-21 19:11:00,
2013-05-21 15:21:00,78.0,67.0,30.06,South,177,1.0,3.0,70,0.00,,,0.00,,2013-05-21 19:21:00,
2013-05-21 15:32:00,77.0,66.0,30.05,South,176,1.0,3.0,69,0.00,,,0.00,,2013-05-21 19:32:00,
2013-05-21 15:42:00,77.0,66.0,30.05,South,176,1.0,3.0,69,0.00,,,0.00,,2013-05-21 19:42:00,
2013-05-21 15:52:00,78.0,66.0,30.05,South,176,1.0,4.0,67,0.00,,,0.00,,2013-05-21 19:52:00,
2013-05-21 16:03:00,78.0,66.0,30.03,South,176,1.0,4.0,66,0.00,,,0.00,,2013-05-21 20:03:00,
2013-05-21 16:11:00,78.0,66.0,30.03,South,176,1.0,4.0,66,0.00,,,0.00,,2013-05-21 20:11:00,
2013-05-21 16:22:00,78.0,64.0,30.04,South,176,1.0,4.0,62,0.00,,,0.00,,2013-05-21 20:22:00,
2013-05-21 16:32:00,79.0,68.0,30.04,South,176,0.0,2.0,68,0.00,,,0.00,,2013-05-21 20:32:00,
2013-05-21 16:42:00,79.0,68.0,30.04,South,176,0.0,2.0,68,0.00,,,0.00,,2013-05-21 20:42:00,
2013-05-21 16:52:00,79.0,64.0,30.03,South,176,0.0,3.0,61,0.00,,,0.00,,2013-05-21 20:52:00,
2013-05-21 17:02:00,79.0,66.0,30.03,South,176,0.0,3.0,64,0.00,,,0.00,,2013-05-21 21:02:00,
2013-05-21 17:11:00,79.0,66.0,30.03,South,176,0.0,3.0,64,0.00,,,0.00,,2013-05-21 21:11:00,
2013-05-21 17:22:00,78.0,66.0,30.02,South,177,1.0,4.0,66,0.00,,,0.00,,2013-05-21 21:22:00,
2013-05-21 17:33:00,75.0,65.0,30.03,South,176,0.0,3.0,71,0.00,,,0.00,,2013-05-21 21:33:00,
2013-05-21 17:43:00,75.0,65.0,30.03,South,176,0.0,3.0,71,0.00,,,0.00,,2013-05-21 21:43:00,
2013-05-21 17:54:00,73.0,63.0,30.03,South,176,0.0,1.0,72,0.00,,,0.00,,2013-05-21 21:54:00,
2013-05-21 18:02:00,72.0,64.0,30.03,South,176,0.0,1.0,75,0.00,,,0.00,,2013-05-21 22:02:00,
2013-05-21 18:12:00,72.0,64.0,30.03,South,176,0.0,1.0,75,0.00,,,0.00,,2013-05-21 22:12:00,
2013-05-21 18:23:00,72.0,64.0,30.02,South,176,0.0,0.0,77,0.00,,,0.00,,2013-05-21 22:23:00,
2013-05-21 18:33:00,72.0,64.0,30.02,South,176,0.0,1.0,75,0.00,,,0.00,,2013-05-21 22:33:00,
2013-05-21 18:42:00,72.0,64.0,30.02,South,176,0.0,1.0,75,0.00,,,0.00,,2013-05-21 22:42:00,
2013-05-21 18:53:00,72.0,64.0,30.01,South,176,0.0,0.0,76,0.00,,,0.00,,2013-05-21 22:53:00,
2013-05-21 19:02:00,72.0,64.0,30.01,South,176,1.0,3.0,76,0.00,,,0.00,,2013-05-21 23:02:00,
2013-05-21 19:12:00,72.0,64.0,30.01,South,176,1.0,3.0,76,0.00,,,0.00,,2013-05-21 23:12:00,
2013-05-21 19:22:00,72.0,64.0,30.02,South,176,1.0,3.0,77,0.00,,,0.00,,2013-05-21 23:22:00,
2013-05-21 19:32:00,71.0,63.0,30.03,South,176,1.0,3.0,76,0.00,,,0.00,,2013-05-21 23:32:00,
2013-05-21 19:42:00,71.0,63.0,30.03,South,176,0.0,1.0,77,0.00,,,0.00,,2013-05-21 23:42:00,
2013-05-21 19:52:00,71.0,63.0,30.03,South,176,0.0,1.0,77,0.00,,,0.00,,2013-05-21 23:52:00,
2013-05-21 20:01:00,70.0,63.0,30.03,South,176,0.0,1.0,78,0.00,,,0.00,,2013-05-22 00:01:00,
2013-05-21 20:11:00,70.0,63.0,30.03,South,176,0.0,1.0,78,0.00,,,0.00,,2013-05-22 00:11:00,
2013-05-21 20:21:00,70.0,64.0,30.04,South,176,0.0,1.0,80,0.00,,,0.00,,2013-05-22 00:21:00,
2013-05-21 20:32:00,69.0,63.0,30.03,South,176,0.0,2.0,81,0.00,,,0.00,,2013-05-22 00:32:00,
2013-05-21 20:41:00,69.0,63.0,30.03,South,176,0.0,2.0,81,0.00,,,0.00,,2013-05-22 00:41:00,
2013-05-21 20:52:00,69.0,64.0,30.03,South,176,0.0,1.0,84,0.00,,,0.00,,2013-05-22 00:52:00,
2013-05-21 21:01:00,68.0,63.0,30.03,South,176,0.0,3.0,84,0.00,,,0.00,,2013-05-22 01:01:00,
2013-05-21 21:11:00,68.0,63.0,30.03,South,176,0.0,3.0,84,0.00,,,0.00,,2013-05-22 01:11:00,
2013-05-21 21:21:00,68.0,63.0,30.03,South,176,1.0,4.0,84,0.00,,,0.00,,2013-05-22 01:21:00,
2013-05-21 21:32:00,67.0,62.0,30.04,South,176,0.0,4.0,85,0.00,,,0.00,,2013-05-22 01:32:00,
2013-05-21 21:42:00,67.0,63.0,30.04,South,176,0.0,6.0,86,0.00,,,0.00,,2013-05-22 01:42:00,
2013-05-21 21:52:00,67.0,63.0,30.04,South,176,0.0,6.0,86,0.00,,,0.00,,2013-05-22 01:52:00,
2013-05-21 22:02:00,67.0,63.0,30.04,South,176,1.0,4.0,86,0.00,,,0.00,,2013-05-22 02:02:00,
2013-05-21 22:11:00,67.0,63.0,30.04,South,176,1.0,4.0,86,0.00,,,0.00,,2013-05-22 02:11:00,
2013-05-21 22:21:00,67.0,62.0,30.05,South,173,0.0,5.0,85,0.00,,,0.00,,2013-05-22 02:21:00,
2013-05-21 22:32:00,67.0,62.0,30.05,South,172,2.0,8.0,83,0.00,,,0.00,,2013-05-22 02:32:00,
2013-05-21 22:42:00,66.0,62.0,30.04,South,170,1.0,5.0,87,0.01,,,0.01,,2013-05-22 02:42:00,
2013-05-21 22:52:00,66.0,62.0,30.04,South,170,1.0,5.0,87,0.01,,,0.01,,2013-05-22 02:52:00,
2013-05-21 23:01:00,65.0,61.0,30.04,South,170,0.0,4.0,88,0.01,,,0.01,,2013-05-22 03:01:00,
2013-05-21 23:11:00,65.0,61.0,30.04,South,170,0.0,4.0,88,0.01,,,0.01,,2013-05-22 03:11:00,
2013-05-21 23:21:00,65.0,62.0,30.05,South,172,0.0,2.0,89,0.01,,,0.01,,2013-05-22 03:21:00,
2013-05-21 23:33:00,64.0,61.0,30.05,South,172,0.0,1.0,89,0.01,,,0.01,,2013-05-22 03:33:00,
2013-05-21 23:43:00,65.0,61.0,30.05,South,172,0.0,1.0,86,0.00,,,0.01,,2013-05-22 03:43:00,
2013-05-21 23:53:00,65.0,61.0,30.05,South,172,0.0,1.0,86,0.00,,,0.01,,2013-05-22 03:53:00,